contact:dominique.lefevre@mio.osupytheas.fr, maurice.libes@osupytheas.fr, didier.mallarino@osupytheas.fr
Project:EMSO http://www.emso-fr.org/EMSO-France
Depth: 2436.0 m
Title:EMSO Ligure Ouest : Data MII capteur MICROCAT
DateTime_Computer,Latitude,Longitude,Temperature,Conductivity,Pressure,DateTime_Instrument
DateTime_Computer,Latitude,Longitude,degC,S m-1,dbar,DateTime_Instrument
2023-01-25T00:00:03Z,42.805,6.029,13.3052,4.60126,2470.614,2023-1-25T02:06:28Z
2023-01-25T00:03:06Z,42.805,6.029,13.3051,4.60152,2470.637,2023-1-25T02:09:31Z
2023-01-25T00:06:09Z,42.805,6.029,13.3039,4.60168,2470.614,2023-1-25T02:12:34Z
2023-01-25T00:09:12Z,42.805,6.029,13.3040,4.60159,2470.614,2023-1-25T02:15:37Z
2023-01-25T00:12:15Z,42.805,6.029,13.3056,4.60131,2470.637,2023-1-25T02:18:41Z
2023-01-25T00:15:18Z,42.805,6.029,13.3061,4.60119,2470.591,2023-1-25T02:21:44Z
2023-01-25T00:18:22Z,42.805,6.029,13.3061,4.60127,2470.624,2023-1-25T02:24:47Z
2023-01-25T00:21:25Z,42.805,6.029,13.3050,4.60142,2470.567,2023-1-25T02:27:50Z
2023-01-25T00:24:28Z,42.805,6.029,13.3065,4.60103,2470.591,2023-1-25T02:30:53Z
2023-01-25T00:27:31Z,42.805,6.029,13.3061,4.60104,2470.577,2023-1-25T02:33:56Z
2023-01-25T00:30:34Z,42.805,6.029,13.3080,4.60127,2470.591,2023-1-25T02:36:59Z
2023-01-25T00:33:37Z,42.805,6.029,13.3084,4.60100,2470.614,2023-1-25T02:40:02Z
2023-01-25T00:36:40Z,42.805,6.029,13.3062,4.60105,2470.577,2023-1-25T02:43:05Z
2023-01-25T00:39:43Z,42.805,6.029,13.3055,4.60098,2470.567,2023-1-25T02:46:08Z
2023-01-25T00:42:46Z,42.805,6.029,13.3076,4.60105,2470.591,2023-1-25T02:49:11Z
2023-01-25T00:45:49Z,42.805,6.029,13.3064,4.60109,2470.591,2023-1-25T02:52:14Z
2023-01-25T00:48:52Z,42.805,6.029,13.3021,4.60090,2470.614,2023-1-25T02:55:18Z
2023-01-25T00:51:55Z,42.805,6.029,13.3029,4.60098,2470.6,2023-1-25T02:58:21Z
2023-01-25T00:54:59Z,42.805,6.029,13.3037,4.60087,2470.591,2023-1-25T03:01:24Z
2023-01-25T00:58:02Z,42.805,6.029,13.3061,4.60152,2470.553,2023-1-25T03:04:27Z
2023-01-25T01:01:05Z,42.805,6.029,13.3054,4.60096,2470.6,2023-1-25T03:07:30Z
2023-01-25T01:04:08Z,42.805,6.029,13.3048,4.60127,2470.591,2023-1-25T03:10:33Z
2023-01-25T01:07:11Z,42.805,6.029,13.3058,4.60169,2470.53,2023-1-25T03:13:36Z
2023-01-25T01:10:14Z,42.805,6.029,13.3046,4.60177,2470.577,2023-1-25T03:16:39Z
2023-01-25T01:13:17Z,42.805,6.029,13.3043,4.60150,2470.553,2023-1-25T03:19:42Z
2023-01-25T01:16:20Z,42.805,6.029,13.3046,4.60174,2470.591,2023-1-25T03:22:45Z
2023-01-25T01:19:23Z,42.805,6.029,13.3051,4.60172,2470.553,2023-1-25T03:25:48Z
2023-01-25T01:22:26Z,42.805,6.029,13.3046,4.60156,2470.577,2023-1-25T03:28:52Z
2023-01-25T01:25:29Z,42.805,6.029,13.3052,4.60155,2470.577,2023-1-25T03:31:55Z
2023-01-25T01:28:32Z,42.805,6.029,13.3067,4.60119,2470.553,2023-1-25T03:34:58Z
2023-01-25T01:31:36Z,42.805,6.029,13.3036,4.60081,2470.553,2023-1-25T03:38:01Z
2023-01-25T01:34:39Z,42.805,6.029,13.3023,4.60082,2470.567,2023-1-25T03:41:04Z
2023-01-25T01:37:42Z,42.805,6.029,13.3031,4.60087,2470.553,2023-1-25T03:44:07Z
2023-01-25T01:40:45Z,42.805,6.029,13.3030,4.60080,2470.553,2023-1-25T03:47:10Z
2023-01-25T01:43:48Z,42.805,6.029,13.3026,4.60117,2470.567,2023-1-25T03:50:13Z
2023-01-25T01:46:51Z,42.805,6.029,13.3067,4.60109,2470.53,2023-1-25T03:53:16Z
2023-01-25T01:49:54Z,42.805,6.029,13.3059,4.60107,2470.53,2023-1-25T03:56:19Z
2023-01-25T01:52:57Z,42.805,6.029,13.3091,4.60112,2470.553,2023-1-25T03:59:22Z
2023-01-25T01:56:00Z,42.805,6.029,13.3059,4.60089,2470.544,2023-1-25T04:02:25Z
2023-01-25T01:59:03Z,42.805,6.029,13.3056,4.60094,2470.553,2023-1-25T04:05:29Z
2023-01-25T02:02:06Z,42.805,6.029,13.3054,4.60101,2470.507,2023-1-25T04:08:32Z
2023-01-25T02:05:09Z,42.805,6.029,13.3022,4.60094,2470.516,2023-1-25T04:11:35Z
2023-01-25T02:08:13Z,42.805,6.029,13.3015,4.60086,2470.507,2023-1-25T04:14:38Z
2023-01-25T02:11:16Z,42.805,6.029,13.3022,4.60082,2470.483,2023-1-25T04:17:41Z
2023-01-25T02:14:19Z,42.805,6.029,13.3018,4.60084,2470.507,2023-1-25T04:20:44Z
2023-01-25T02:17:22Z,42.805,6.029,13.3017,4.60088,2470.483,2023-1-25T04:23:47Z
2023-01-25T02:20:25Z,42.805,6.029,13.3016,4.60082,2470.507,2023-1-25T04:26:50Z
2023-01-25T02:23:28Z,42.805,6.029,13.3016,4.60087,2470.52,2023-1-25T04:29:53Z
2023-01-25T02:26:31Z,42.805,6.029,13.3018,4.60087,2470.544,2023-1-25T04:32:56Z
2023-01-25T02:29:34Z,42.805,6.029,13.3018,4.60079,2470.53,2023-1-25T04:35:59Z
2023-01-25T02:32:37Z,42.805,6.029,13.3019,4.60082,2470.507,2023-1-25T04:39:03Z
2023-01-25T02:35:40Z,42.805,6.029,13.3014,4.60079,2470.507,2023-1-25T04:42:06Z
2023-01-25T02:38:43Z,42.805,6.029,13.3019,4.60082,2470.52,2023-1-25T04:45:09Z
2023-01-25T02:41:46Z,42.805,6.029,13.3015,4.60074,2470.493,2023-1-25T04:48:12Z
2023-01-25T02:44:50Z,42.805,6.029,13.3015,4.60074,2470.52,2023-1-25T04:51:15Z
2023-01-25T02:47:53Z,42.805,6.029,13.3014,4.60074,2470.493,2023-1-25T04:54:18Z
2023-01-25T02:50:56Z,42.805,6.029,13.3013,4.60074,2470.507,2023-1-25T04:57:21Z
2023-01-25T02:53:59Z,42.805,6.029,13.3018,4.60072,2470.507,2023-1-25T05:00:24Z
2023-01-25T02:57:02Z,42.805,6.029,13.3018,4.60073,2470.507,2023-1-25T05:03:27Z
2023-01-25T03:00:05Z,42.805,6.029,13.3017,4.60070,2470.53,2023-1-25T05:06:30Z
2023-01-25T03:03:08Z,42.805,6.029,13.3021,4.60072,2470.497,2023-1-25T05:09:33Z
2023-01-25T03:06:11Z,42.805,6.029,13.3013,4.60073,2470.483,2023-1-25T05:12:36Z
2023-01-25T03:09:14Z,42.805,6.029,13.3016,4.60070,2470.493,2023-1-25T05:15:40Z
2023-01-25T03:12:17Z,42.805,6.029,13.3020,4.60074,2470.497,2023-1-25T05:18:43Z
2023-01-25T03:15:20Z,42.805,6.029,13.3021,4.60074,2470.483,2023-1-25T05:21:46Z
2023-01-25T03:18:24Z,42.805,6.029,13.3015,4.60077,2470.483,2023-1-25T05:24:49Z
2023-01-25T03:21:27Z,42.805,6.029,13.3020,4.60082,2470.483,2023-1-25T05:27:52Z
2023-01-25T03:24:30Z,42.805,6.029,13.3024,4.60079,2470.497,2023-1-25T05:30:55Z
2023-01-25T03:27:33Z,42.805,6.029,13.3019,4.60072,2470.497,2023-1-25T05:33:58Z
2023-01-25T03:30:36Z,42.805,6.029,13.3018,4.60082,2470.52,2023-1-25T05:37:01Z
2023-01-25T03:33:39Z,42.805,6.029,13.3015,4.60073,2470.446,2023-1-25T05:40:04Z
2023-01-25T03:36:42Z,42.805,6.029,13.3024,4.60074,2470.483,2023-1-25T05:43:07Z
2023-01-25T03:39:45Z,42.805,6.029,13.3017,4.60074,2470.497,2023-1-25T05:46:10Z
2023-01-25T03:42:48Z,42.805,6.029,13.3019,4.60073,2470.483,2023-1-25T05:49:13Z
2023-01-25T03:45:51Z,42.805,6.029,13.3017,4.60081,2470.483,2023-1-25T05:52:17Z
2023-01-25T03:48:54Z,42.805,6.029,13.3015,4.60072,2470.507,2023-1-25T05:55:20Z
2023-01-25T03:51:57Z,42.805,6.029,13.3016,4.60073,2470.483,2023-1-25T05:58:23Z
2023-01-25T03:55:01Z,42.805,6.029,13.3019,4.60071,2470.483,2023-1-25T06:01:26Z
2023-01-25T03:58:04Z,42.805,6.029,13.3020,4.60080,2470.507,2023-1-25T06:04:29Z
2023-01-25T04:01:07Z,42.805,6.029,13.3020,4.60076,2470.52,2023-1-25T06:07:32Z
2023-01-25T04:04:10Z,42.805,6.029,13.3019,4.60073,2470.507,2023-1-25T06:10:35Z
2023-01-25T04:07:13Z,42.805,6.029,13.3020,4.60080,2470.46,2023-1-25T06:13:38Z
2023-01-25T04:10:16Z,42.805,6.029,13.3019,4.60072,2470.507,2023-1-25T06:16:41Z
2023-01-25T04:13:19Z,42.805,6.029,13.3021,4.60072,2470.483,2023-1-25T06:19:44Z
2023-01-25T04:16:22Z,42.805,6.029,13.3018,4.60072,2470.497,2023-1-25T06:22:47Z
2023-01-25T04:19:25Z,42.805,6.029,13.3020,4.60074,2470.507,2023-1-25T06:25:50Z
2023-01-25T04:22:28Z,42.805,6.029,13.3019,4.60074,2470.483,2023-1-25T06:28:54Z
2023-01-25T04:25:31Z,42.805,6.029,13.3017,4.60074,2470.497,2023-1-25T06:31:57Z
2023-01-25T04:28:34Z,42.805,6.029,13.3019,4.60073,2470.507,2023-1-25T06:35:00Z
2023-01-25T04:31:38Z,42.805,6.029,13.3021,4.60073,2470.497,2023-1-25T06:38:03Z
2023-01-25T04:34:41Z,42.805,6.029,13.3021,4.60073,2470.507,2023-1-25T06:41:06Z
2023-01-25T04:37:44Z,42.805,6.029,13.3022,4.60075,2470.52,2023-1-25T06:44:09Z
2023-01-25T04:40:47Z,42.805,6.029,13.3020,4.60075,2470.52,2023-1-25T06:47:12Z
2023-01-25T04:43:50Z,42.805,6.029,13.3021,4.60074,2470.483,2023-1-25T06:50:15Z
2023-01-25T04:46:53Z,42.805,6.029,13.3024,4.60074,2470.483,2023-1-25T06:53:18Z
2023-01-25T04:49:56Z,42.805,6.029,13.3021,4.60073,2470.483,2023-1-25T06:56:21Z
2023-01-25T04:52:59Z,42.805,6.029,13.3020,4.60073,2470.483,2023-1-25T06:59:24Z
2023-01-25T04:56:02Z,42.805,6.029,13.3021,4.60073,2470.46,2023-1-25T07:02:28Z
2023-01-25T04:59:05Z,42.805,6.029,13.3021,4.60074,2470.497,2023-1-25T07:05:31Z
2023-01-25T05:02:08Z,42.805,6.029,13.3021,4.60074,2470.507,2023-1-25T07:08:34Z
2023-01-25T05:05:11Z,42.805,6.029,13.3022,4.60077,2470.507,2023-1-25T07:11:37Z
2023-01-25T05:08:15Z,42.805,6.029,13.3021,4.60074,2470.483,2023-1-25T07:14:40Z
2023-01-25T05:11:18Z,42.805,6.029,13.3019,4.60074,2470.53,2023-1-25T07:17:43Z
2023-01-25T05:14:21Z,42.805,6.029,13.3019,4.60074,2470.53,2023-1-25T07:20:46Z
2023-01-25T05:17:24Z,42.805,6.029,13.3021,4.60073,2470.53,2023-1-25T07:23:49Z
2023-01-25T05:20:27Z,42.805,6.029,13.3019,4.60073,2470.507,2023-1-25T07:26:52Z
2023-01-25T05:23:30Z,42.805,6.029,13.3019,4.60072,2470.507,2023-1-25T07:29:55Z
2023-01-25T05:26:33Z,42.805,6.029,13.3021,4.60075,2470.53,2023-1-25T07:32:58Z
2023-01-25T05:29:36Z,42.805,6.029,13.3022,4.60073,2470.507,2023-1-25T07:36:01Z
2023-01-25T05:32:39Z,42.805,6.029,13.3021,4.60079,2470.53,2023-1-25T07:39:05Z
2023-01-25T05:35:42Z,42.805,6.029,13.3022,4.60079,2470.53,2023-1-25T07:42:08Z
2023-01-25T05:38:45Z,42.805,6.029,13.3019,4.60074,2470.52,2023-1-25T07:45:11Z
2023-01-25T05:41:48Z,42.805,6.029,13.3021,4.60075,2470.553,2023-1-25T07:48:14Z
2023-01-25T05:44:52Z,42.805,6.029,13.3021,4.60074,2470.553,2023-1-25T07:51:17Z
2023-01-25T05:47:55Z,42.805,6.029,13.3019,4.60073,2470.544,2023-1-25T07:54:20Z
2023-01-25T05:50:58Z,42.805,6.029,13.3019,4.60072,2470.591,2023-1-25T07:57:23Z
2023-01-25T05:54:01Z,42.805,6.029,13.3016,4.60074,2470.553,2023-1-25T08:00:26Z
2023-01-25T05:57:04Z,42.805,6.029,13.3022,4.60075,2470.53,2023-1-25T08:03:29Z
2023-01-25T06:00:07Z,42.805,6.029,13.3024,4.60076,2470.591,2023-1-25T08:06:32Z
2023-01-25T06:03:10Z,42.805,6.029,13.3023,4.60076,2470.553,2023-1-25T08:09:35Z
2023-01-25T06:06:13Z,42.805,6.029,13.3023,4.60074,2470.544,2023-1-25T08:12:39Z
2023-01-25T06:09:16Z,42.805,6.029,13.3019,4.60075,2470.553,2023-1-25T08:15:42Z
2023-01-25T06:12:19Z,42.805,6.029,13.3024,4.60074,2470.577,2023-1-25T08:18:45Z
2023-01-25T06:15:22Z,42.805,6.029,13.3019,4.60075,2470.553,2023-1-25T08:21:48Z
2023-01-25T06:18:25Z,42.805,6.029,13.3019,4.60076,2470.577,2023-1-25T08:24:51Z
2023-01-25T06:21:29Z,42.805,6.029,13.3019,4.60074,2470.577,2023-1-25T08:27:54Z
2023-01-25T06:24:32Z,42.805,6.029,13.3022,4.60074,2470.6,2023-1-25T08:30:57Z
2023-01-25T06:27:35Z,42.805,6.029,13.3019,4.60078,2470.577,2023-1-25T08:34:00Z
2023-01-25T06:30:38Z,42.805,6.029,13.3019,4.60073,2470.624,2023-1-25T08:37:03Z
2023-01-25T06:33:41Z,42.805,6.029,13.3021,4.60076,2470.591,2023-1-25T08:40:06Z
2023-01-25T06:36:44Z,42.805,6.029,13.3020,4.60074,2470.624,2023-1-25T08:43:09Z
2023-01-25T06:39:47Z,42.805,6.029,13.3019,4.60073,2470.577,2023-1-25T08:46:12Z
2023-01-25T06:42:50Z,42.805,6.029,13.3023,4.60074,2470.6,2023-1-25T08:49:16Z
2023-01-25T06:45:53Z,42.805,6.029,13.3021,4.60074,2470.6,2023-1-25T08:52:19Z
2023-01-25T06:48:56Z,42.805,6.029,13.3021,4.60074,2470.67,2023-1-25T08:55:22Z
2023-01-25T06:51:59Z,42.805,6.029,13.3021,4.60074,2470.624,2023-1-25T08:58:25Z
2023-01-25T06:55:03Z,42.805,6.029,13.3021,4.60074,2470.661,2023-1-25T09:01:28Z
2023-01-25T06:58:06Z,42.805,6.029,13.3019,4.60080,2470.637,2023-1-25T09:04:31Z
2023-01-25T07:01:09Z,42.805,6.029,13.3021,4.60074,2470.624,2023-1-25T09:07:34Z
2023-01-25T07:04:12Z,42.805,6.029,13.3021,4.60074,2470.646,2023-1-25T09:10:37Z
2023-01-25T07:07:15Z,42.805,6.029,13.3017,4.60074,2470.646,2023-1-25T09:13:40Z
2023-01-25T07:10:18Z,42.805,6.029,13.3019,4.60074,2470.661,2023-1-25T09:16:43Z
2023-01-25T07:13:21Z,42.805,6.029,13.3019,4.60074,2470.646,2023-1-25T09:19:46Z
2023-01-25T07:16:24Z,42.805,6.029,13.3019,4.60073,2470.67,2023-1-25T09:22:50Z
2023-01-25T07:19:27Z,42.805,6.029,13.3017,4.60072,2470.624,2023-1-25T09:25:53Z
2023-01-25T07:22:30Z,42.805,6.029,13.3015,4.60074,2470.661,2023-1-25T09:28:56Z
2023-01-25T07:25:33Z,42.805,6.029,13.3021,4.60074,2470.67,2023-1-25T09:31:59Z
2023-01-25T07:28:36Z,42.805,6.029,13.3019,4.60074,2470.67,2023-1-25T09:35:02Z
2023-01-25T07:31:40Z,42.805,6.029,13.3017,4.60073,2470.707,2023-1-25T09:38:05Z
2023-01-25T07:34:43Z,42.805,6.029,13.3019,4.60075,2470.684,2023-1-25T09:41:08Z
2023-01-25T07:37:46Z,42.805,6.029,13.3024,4.60074,2470.693,2023-1-25T09:44:11Z
2023-01-25T07:40:49Z,42.805,6.029,13.3019,4.60075,2470.707,2023-1-25T09:47:14Z
2023-01-25T07:43:52Z,42.805,6.029,13.3019,4.60073,2470.707,2023-1-25T09:50:17Z
2023-01-25T07:46:55Z,42.805,6.029,13.3014,4.60073,2470.684,2023-1-25T09:53:20Z
2023-01-25T07:49:58Z,42.805,6.029,13.3022,4.60079,2470.717,2023-1-25T09:56:24Z
2023-01-25T07:53:01Z,42.805,6.029,13.3021,4.60075,2470.693,2023-1-25T09:59:27Z
2023-01-25T07:56:04Z,42.805,6.029,13.3019,4.60073,2470.693,2023-1-25T10:02:30Z
2023-01-25T07:59:07Z,42.805,6.029,13.3022,4.60074,2470.74,2023-1-25T10:05:33Z
2023-01-25T08:02:10Z,42.805,6.029,13.3019,4.60077,2470.74,2023-1-25T10:08:36Z
2023-01-25T08:05:14Z,42.805,6.029,13.3019,4.60075,2470.707,2023-1-25T10:11:39Z
2023-01-25T08:08:17Z,42.805,6.029,13.3019,4.60074,2470.717,2023-1-25T10:14:42Z
2023-01-25T08:11:20Z,42.805,6.029,13.3024,4.60074,2470.717,2023-1-25T10:17:45Z
2023-01-25T08:14:23Z,42.805,6.029,13.3024,4.60075,2470.777,2023-1-25T10:20:48Z
2023-01-25T08:17:26Z,42.805,6.029,13.3021,4.60075,2470.754,2023-1-25T10:23:51Z
2023-01-25T08:20:29Z,42.805,6.029,13.3020,4.60075,2470.707,2023-1-25T10:26:54Z
2023-01-25T08:23:32Z,42.805,6.029,13.3022,4.60074,2470.707,2023-1-25T10:29:58Z
2023-01-25T08:26:35Z,42.805,6.029,13.3022,4.60074,2470.754,2023-1-25T10:33:01Z
2023-01-25T08:29:38Z,42.805,6.029,13.3019,4.60073,2470.754,2023-1-25T10:36:04Z
2023-01-25T08:32:41Z,42.805,6.029,13.3020,4.60083,2470.693,2023-1-25T10:39:07Z
2023-01-25T08:35:44Z,42.805,6.029,13.3020,4.60075,2470.74,2023-1-25T10:42:10Z
2023-01-25T08:38:48Z,42.805,6.029,13.3016,4.60081,2470.74,2023-1-25T10:45:13Z
2023-01-25T08:41:51Z,42.805,6.029,13.3017,4.60075,2470.763,2023-1-25T10:48:16Z
2023-01-25T08:44:54Z,42.805,6.029,13.3018,4.60074,2470.726,2023-1-25T10:51:19Z
2023-01-25T08:47:57Z,42.805,6.029,13.3016,4.60079,2470.763,2023-1-25T10:54:22Z
2023-01-25T08:51:00Z,42.805,6.029,13.3024,4.60073,2470.777,2023-1-25T10:57:25Z
2023-01-25T08:54:03Z,42.805,6.029,13.3017,4.60074,2470.763,2023-1-25T11:00:28Z
2023-01-25T08:57:06Z,42.805,6.029,13.3019,4.60074,2470.74,2023-1-25T11:03:32Z
2023-01-25T09:00:09Z,42.805,6.029,13.3022,4.60074,2470.763,2023-1-25T11:06:35Z
2023-01-25T09:03:12Z,42.805,6.029,13.3017,4.60078,2470.8,2023-1-25T11:09:38Z
2023-01-25T09:06:15Z,42.805,6.029,13.3019,4.60075,2470.787,2023-1-25T11:12:41Z
2023-01-25T09:09:18Z,42.805,6.029,13.3020,4.60077,2470.763,2023-1-25T11:15:44Z
2023-01-25T09:12:22Z,42.805,6.029,13.3020,4.60074,2470.787,2023-1-25T11:18:47Z
2023-01-25T09:15:25Z,42.805,6.029,13.3019,4.60074,2470.787,2023-1-25T11:21:50Z
2023-01-25T09:18:28Z,42.805,6.029,13.3019,4.60075,2470.787,2023-1-25T11:24:53Z
2023-01-25T09:21:31Z,42.805,6.029,13.3020,4.60073,2470.74,2023-1-25T11:27:56Z
2023-01-25T09:24:34Z,42.805,6.029,13.3021,4.60074,2470.754,2023-1-25T11:30:59Z
2023-01-25T09:27:37Z,42.805,6.029,13.3024,4.60075,2470.787,2023-1-25T11:34:02Z
2023-01-25T09:30:40Z,42.805,6.029,13.3019,4.60078,2470.787,2023-1-25T11:37:06Z
2023-01-25T09:33:43Z,42.805,6.029,13.3019,4.60074,2470.763,2023-1-25T11:40:09Z
2023-01-25T09:36:46Z,42.805,6.029,13.3019,4.60075,2470.81,2023-1-25T11:43:12Z
2023-01-25T09:39:49Z,42.805,6.029,13.3023,4.60077,2470.787,2023-1-25T11:46:15Z
2023-01-25T09:42:52Z,42.805,6.029,13.3022,4.60074,2470.8,2023-1-25T11:49:18Z
2023-01-25T09:45:56Z,42.805,6.029,13.3021,4.60075,2470.824,2023-1-25T11:52:21Z
2023-01-25T09:48:59Z,42.805,6.029,13.3019,4.60075,2470.763,2023-1-25T11:55:24Z
2023-01-25T09:52:02Z,42.805,6.029,13.3022,4.60075,2470.763,2023-1-25T11:58:27Z
2023-01-25T09:55:05Z,42.805,6.029,13.3017,4.60076,2470.763,2023-1-25T12:01:30Z
2023-01-25T09:58:08Z,42.805,6.029,13.3021,4.60080,2470.763,2023-1-25T12:04:33Z
2023-01-25T10:01:11Z,42.805,6.029,13.3016,4.60075,2470.763,2023-1-25T12:07:36Z
2023-01-25T10:04:14Z,42.805,6.029,13.3022,4.60076,2470.81,2023-1-25T12:10:40Z
2023-01-25T10:07:17Z,42.805,6.029,13.3022,4.60079,2470.777,2023-1-25T12:13:43Z
2023-01-25T10:10:20Z,42.805,6.029,13.3024,4.60076,2470.81,2023-1-25T12:16:46Z
2023-01-25T10:13:23Z,42.805,6.029,13.3021,4.60081,2470.81,2023-1-25T12:19:49Z
2023-01-25T10:16:26Z,42.805,6.029,13.3024,4.60074,2470.763,2023-1-25T12:22:52Z
2023-01-25T10:19:30Z,42.805,6.029,13.3018,4.60077,2470.763,2023-1-25T12:25:55Z
2023-01-25T10:22:33Z,42.805,6.029,13.3022,4.60074,2470.75,2023-1-25T12:28:58Z
2023-01-25T10:25:36Z,42.805,6.029,13.3018,4.60078,2470.763,2023-1-25T12:32:01Z
2023-01-25T10:28:39Z,42.805,6.029,13.3024,4.60081,2470.777,2023-1-25T12:35:04Z
2023-01-25T10:31:42Z,42.805,6.029,13.3020,4.60075,2470.8,2023-1-25T12:38:07Z
2023-01-25T10:34:45Z,42.805,6.029,13.3019,4.60076,2470.763,2023-1-25T12:41:11Z
2023-01-25T10:37:48Z,42.805,6.029,13.3022,4.60078,2470.763,2023-1-25T12:44:14Z
2023-01-25T10:40:51Z,42.805,6.029,13.3024,4.60077,2470.763,2023-1-25T12:47:17Z
2023-01-25T10:43:54Z,42.805,6.029,13.3021,4.60077,2470.787,2023-1-25T12:50:20Z
2023-01-25T10:46:57Z,42.805,6.029,13.3022,4.60075,2470.81,2023-1-25T12:53:23Z
2023-01-25T10:50:00Z,42.805,6.029,13.3024,4.60074,2470.763,2023-1-25T12:56:26Z
2023-01-25T10:53:04Z,42.805,6.029,13.3019,4.60076,2470.754,2023-1-25T12:59:29Z
2023-01-25T10:56:07Z,42.805,6.029,13.3019,4.60075,2470.717,2023-1-25T13:02:32Z
2023-01-25T10:59:10Z,42.805,6.029,13.3023,4.60078,2470.777,2023-1-25T13:05:35Z
2023-01-25T11:02:13Z,42.805,6.029,13.3022,4.60078,2470.74,2023-1-25T13:08:38Z
2023-01-25T11:05:16Z,42.805,6.029,13.3020,4.60074,2470.74,2023-1-25T13:11:41Z
2023-01-25T11:08:19Z,42.805,6.029,13.3019,4.60074,2470.754,2023-1-25T13:14:45Z
2023-01-25T11:11:22Z,42.805,6.029,13.3024,4.60078,2470.74,2023-1-25T13:17:48Z
2023-01-25T11:14:25Z,42.805,6.029,13.3019,4.60076,2470.777,2023-1-25T13:20:51Z
2023-01-25T11:17:28Z,42.805,6.029,13.3020,4.60074,2470.763,2023-1-25T13:23:54Z
2023-01-25T11:20:31Z,42.805,6.029,13.3022,4.60075,2470.777,2023-1-25T13:26:57Z
2023-01-25T11:23:34Z,42.805,6.029,13.3021,4.60085,2470.717,2023-1-25T13:30:00Z
2023-01-25T11:26:38Z,42.805,6.029,13.3017,4.60076,2470.763,2023-1-25T13:33:03Z
2023-01-25T11:29:41Z,42.805,6.029,13.3019,4.60079,2470.763,2023-1-25T13:36:06Z
2023-01-25T11:32:44Z,42.805,6.029,13.3017,4.60076,2470.73,2023-1-25T13:39:09Z
2023-01-25T11:35:47Z,42.805,6.029,13.3021,4.60074,2470.73,2023-1-25T13:42:12Z
2023-01-25T11:38:50Z,42.805,6.029,13.3022,4.60077,2470.763,2023-1-25T13:45:15Z
2023-01-25T11:41:53Z,42.805,6.029,13.3022,4.60076,2470.717,2023-1-25T13:48:19Z
2023-01-25T11:44:56Z,42.805,6.029,13.3021,4.60075,2470.717,2023-1-25T13:51:22Z
2023-01-25T11:47:59Z,42.805,6.029,13.3022,4.60079,2470.717,2023-1-25T13:54:25Z
2023-01-25T11:51:02Z,42.805,6.029,13.3022,4.60076,2470.707,2023-1-25T13:57:28Z
2023-01-25T11:54:05Z,42.805,6.029,13.3022,4.60098,2470.717,2023-1-25T14:00:31Z
2023-01-25T11:57:08Z,42.805,6.029,13.3020,4.60077,2470.763,2023-1-25T14:03:34Z
2023-01-25T12:00:12Z,42.805,6.029,13.3021,4.60074,2470.717,2023-1-25T14:06:37Z
2023-01-25T12:03:15Z,42.805,6.029,13.3019,4.60074,2470.763,2023-1-25T14:09:40Z
2023-01-25T12:06:18Z,42.805,6.029,13.3024,4.60076,2470.693,2023-1-25T14:12:43Z
2023-01-25T12:09:21Z,42.805,6.029,13.3019,4.60074,2470.707,2023-1-25T14:15:46Z
2023-01-25T12:12:24Z,42.805,6.029,13.3021,4.60073,2470.717,2023-1-25T14:18:49Z
2023-01-25T12:15:27Z,42.805,6.029,13.3020,4.60074,2470.684,2023-1-25T14:21:53Z
2023-01-25T12:18:30Z,42.805,6.029,13.3019,4.60074,2470.693,2023-1-25T14:24:56Z
2023-01-25T12:21:33Z,42.805,6.029,13.3019,4.60074,2470.693,2023-1-25T14:27:59Z
2023-01-25T12:24:36Z,42.805,6.029,13.3021,4.60080,2470.707,2023-1-25T14:31:02Z
2023-01-25T12:27:39Z,42.805,6.029,13.3015,4.60079,2470.693,2023-1-25T14:34:05Z
2023-01-25T12:30:42Z,42.805,6.029,13.3019,4.60075,2470.693,2023-1-25T14:37:08Z
2023-01-25T12:33:46Z,42.805,6.029,13.3021,4.60077,2470.693,2023-1-25T14:40:11Z
2023-01-25T12:36:49Z,42.805,6.029,13.3019,4.60079,2470.707,2023-1-25T14:43:14Z
2023-01-25T12:39:52Z,42.805,6.029,13.3019,4.60076,2470.707,2023-1-25T14:46:17Z
2023-01-25T12:42:55Z,42.805,6.029,13.3022,4.60077,2470.67,2023-1-25T14:49:20Z
2023-01-25T12:45:58Z,42.805,6.029,13.3021,4.60074,2470.67,2023-1-25T14:52:23Z
2023-01-25T12:49:01Z,42.805,6.029,13.3023,4.60074,2470.67,2023-1-25T14:55:27Z
2023-01-25T12:52:04Z,42.805,6.029,13.3020,4.60074,2470.67,2023-1-25T14:58:30Z
2023-01-25T12:55:07Z,42.805,6.029,13.3019,4.60073,2470.67,2023-1-25T15:01:33Z
2023-01-25T12:58:10Z,42.805,6.029,13.3022,4.60076,2470.624,2023-1-25T15:04:36Z
2023-01-25T13:01:13Z,42.805,6.029,13.3024,4.60073,2470.684,2023-1-25T15:07:39Z
2023-01-25T13:04:16Z,42.805,6.029,13.3021,4.60074,2470.684,2023-1-25T15:10:42Z
2023-01-25T13:07:20Z,42.805,6.029,13.3022,4.60075,2470.646,2023-1-25T15:13:45Z
2023-01-25T13:10:23Z,42.805,6.029,13.3019,4.60077,2470.646,2023-1-25T15:16:48Z
2023-01-25T13:13:26Z,42.805,6.029,13.3021,4.60076,2470.646,2023-1-25T15:19:51Z
2023-01-25T13:16:29Z,42.805,6.029,13.3018,4.60075,2470.646,2023-1-25T15:22:54Z
2023-01-25T13:19:32Z,42.805,6.029,13.3021,4.60076,2470.624,2023-1-25T15:25:58Z
2023-01-25T13:22:35Z,42.805,6.029,13.3024,4.60074,2470.637,2023-1-25T15:29:01Z
2023-01-25T13:25:38Z,42.805,6.029,13.3020,4.60081,2470.646,2023-1-25T15:32:04Z
2023-01-25T13:28:41Z,42.805,6.029,13.3022,4.60079,2470.661,2023-1-25T15:35:07Z
2023-01-25T13:31:44Z,42.805,6.029,13.3020,4.60079,2470.6,2023-1-25T15:38:10Z
2023-01-25T13:34:47Z,42.805,6.029,13.3019,4.60074,2470.646,2023-1-25T15:41:13Z
2023-01-25T13:37:50Z,42.805,6.029,13.3019,4.60074,2470.661,2023-1-25T15:44:16Z
2023-01-25T13:40:54Z,42.805,6.029,13.3019,4.60074,2470.61,2023-1-25T15:47:19Z
2023-01-25T13:43:57Z,42.805,6.029,13.3020,4.60073,2470.637,2023-1-25T15:50:22Z
2023-01-25T13:47:00Z,42.805,6.029,13.3019,4.60077,2470.624,2023-1-25T15:53:25Z
2023-01-25T13:50:03Z,42.805,6.029,13.3025,4.60074,2470.6,2023-1-25T15:56:28Z
2023-01-25T13:53:06Z,42.805,6.029,13.3026,4.60075,2470.624,2023-1-25T15:59:32Z
2023-01-25T13:56:09Z,42.805,6.029,13.3027,4.60077,2470.614,2023-1-25T16:02:35Z
2023-01-25T13:59:12Z,42.805,6.029,13.3028,4.60079,2470.637,2023-1-25T16:05:38Z
2023-01-25T14:02:15Z,42.805,6.029,13.3023,4.60079,2470.637,2023-1-25T16:08:41Z
2023-01-25T14:05:18Z,42.805,6.029,13.3028,4.60081,2470.6,2023-1-25T16:11:44Z
2023-01-25T14:08:21Z,42.805,6.029,13.3022,4.60079,2470.624,2023-1-25T16:14:47Z
2023-01-25T14:11:24Z,42.805,6.029,13.3019,4.60075,2470.624,2023-1-25T16:17:50Z
2023-01-25T14:14:28Z,42.805,6.029,13.3017,4.60076,2470.591,2023-1-25T16:20:53Z
2023-01-25T14:17:31Z,42.805,6.029,13.3022,4.60077,2470.624,2023-1-25T16:23:56Z
2023-01-25T14:20:34Z,42.805,6.029,13.3019,4.60076,2470.6,2023-1-25T16:26:59Z
2023-01-25T14:23:37Z,42.805,6.029,13.3015,4.60078,2470.637,2023-1-25T16:30:02Z
2023-01-25T14:26:40Z,42.805,6.029,13.3018,4.60075,2470.6,2023-1-25T16:33:06Z
2023-01-25T14:29:43Z,42.805,6.029,13.3019,4.60074,2470.577,2023-1-25T16:36:09Z
2023-01-25T14:32:46Z,42.805,6.029,13.3020,4.60076,2470.577,2023-1-25T16:39:12Z
2023-01-25T14:35:49Z,42.805,6.029,13.3019,4.60074,2470.614,2023-1-25T16:42:15Z
2023-01-25T14:38:52Z,42.805,6.029,13.3020,4.60075,2470.577,2023-1-25T16:45:18Z
2023-01-25T14:41:55Z,42.805,6.029,13.3021,4.60075,2470.591,2023-1-25T16:48:21Z
2023-01-25T14:44:58Z,42.805,6.029,13.3018,4.60075,2470.6,2023-1-25T16:51:24Z
2023-01-25T14:48:02Z,42.805,6.029,13.3016,4.60082,2470.591,2023-1-25T16:54:27Z
2023-01-25T14:51:05Z,42.805,6.029,13.3021,4.60076,2470.6,2023-1-25T16:57:30Z
2023-01-25T14:54:08Z,42.805,6.029,13.3022,4.60081,2470.567,2023-1-25T17:00:33Z
2023-01-25T14:57:11Z,42.805,6.029,13.3019,4.60079,2470.591,2023-1-25T17:03:36Z
2023-01-25T15:00:14Z,42.805,6.029,13.3018,4.60080,2470.591,2023-1-25T17:06:40Z
2023-01-25T15:03:17Z,42.805,6.029,13.3020,4.60076,2470.591,2023-1-25T17:09:43Z
2023-01-25T15:06:20Z,42.805,6.029,13.3017,4.60076,2470.553,2023-1-25T17:12:46Z
2023-01-25T15:09:23Z,42.805,6.029,13.3018,4.60081,2470.553,2023-1-25T17:15:49Z